[[{"header":{"parameterUnit":"m.s-1","parameterCategory":1,"la1":30.2991,"la2":30.254,"lo1":-89.0895,"lo2":-89.0444,"dy":0.0017,"dx":0.0017,"nx":28,"ny":28,"refTime":"2023-10-13T03:00:00:Z","depth":0,"parameterNumber":2,"parameterNumberName":"U-component_of_WINDS"},"data":[0,0,0,0,0,0,0,0,0,0,0,0,0,0,0,0,0,0,0,0,0,0,0,0,0,0,0,0,0,0,0,0,0,0,0,0,0,0,0,0,0,0,0,0,0,0,0,0,0,0,0,0,0,0,0,0,0,0,-2.1222,-2.1223,0,-2.124,-2.124,-2.124,-2.1148,-2.1145,-2.1143,-2.114,-2.116,-2.1163,-2.1166,0,0,0,0,0,0,0,0,0,0,0,0,0,-2.1109,-2.1112,-2.1222,-2.1223,-2.1223,-2.124,-2.124,-2.124,-2.1149,-2.1145,-2.1142,-2.1139,-2.1159,-2.1162,-2.1166,0,0,0,0,0,0,0,0,0,0,0,0,0,-2.1146,-2.1112,-2.1222,-2.1179,-2.1175,-2.124,-2.124,-2.124,-2.1149,-2.1145,-2.1141,-2.1138,-2.1158,-2.1162,-2.1166,-2.1274,0,0,-2.118,-2.1182,0,0,0,0,0,0,0,0,-2.1144,-2.115,-2.1185,-2.1182,-2.1178,-2.1188,-2.1207,-2.1252,-2.115,-2.1159,-2.114,-2.1136,-2.1172,-2.1175,-2.1188,-2.1275,-2.1276,-2.1181,-2.1183,-2.1185,-2.1187,0,0,0,0,0,0,0,-2.1141,-2.1149,-2.1229,-2.1186,-2.1181,-2.1159,-2.1159,-2.1215,-2.1188,-2.1158,-2.1151,-2.1155,-2.117,-2.1183,-2.1187,-2.1276,-2.118,-2.1184,-2.1187,-2.1189,-2.1451,-2.1455,0,0,0,0,0,0,-2.1144,-2.1147,-2.1229,-2.123,-2.1151,-2.1164,-2.1165,-2.1189,-2.1187,-2.1183,-2.1158,-2.115,-2.1178,-2.1182,-2.1188,-2.1313,-2.1185,-2.1189,-2.1192,-2.1447,-2.1452,-2.1457,0,0,0,0,0,0,-2.1142,-2.1153,-2.1228,-2.1187,-2.1194,-2.117,-2.1198,-2.1191,-2.1205,-2.1187,-2.1182,-2.1177,-2.1175,-2.1181,-2.1253,-2.1313,-2.1191,-2.1196,-2.1442,-2.1449,-2.1454,-2.1565,0,0,0,0,0,0,-2.114,-2.1152,-2.1193,-2.1188,-2.1197,-2.1294,-2.1201,-2.1194,-2.1213,-2.1203,-2.1204,-2.12,-2.1172,-2.1247,-2.1257,-2.1317,-2.1199,-2.1437,-2.1445,-2.1452,-2.1556,-2.1575,-2.1591,0,0,0,0,0,-2.1136,-2.1225,-2.1196,-2.1206,-2.1248,-2.1297,-2.1302,-2.1268,-2.1218,-2.1259,-2.1247,-2.12,-2.1304,-2.1255,-2.1266,-2.1328,-2.1433,-2.1443,-2.1452,-2.1549,-2.1571,-2.159,0,0,0,0,0,0,-2.1238,-2.1223,-2.1191,-2.1281,-2.1291,-2.1281,-2.1332,-2.1293,-2.1318,-2.1308,-2.1264,-2.1265,-2.1344,-2.1342,-2.1288,-2.1431,-2.136,-2.1372,-2.1429,-2.1451,-2.1467,-2.1467,-2.1203,0,0,0,0,0,-2.1271,-2.1312,-2.1297,-2.1377,-2.1384,-2.1357,-2.1378,-2.135,-2.1359,-2.1363,-2.1356,-2.1367,-2.1402,-2.1426,-2.1457,-2.1555,-2.1554,-2.1603,-2.162,-2.1634,-2.1646,-2.1697,-2.1718,-2.1488,-2.1488,-2.1488,0,0,-2.134,-2.1337,-2.1366,-2.1398,-2.1402,-2.1446,-2.1362,-2.1412,-2.1444,-2.137,-2.1438,-2.1433,-2.1442,-2.1527,-2.1564,-2.1528,-2.1708,-2.1646,-2.1658,-2.1662,-2.1709,-2.1731,-2.175,-2.1495,-2.1494,-2.1493,0,0,-2.1488,-2.1489,-2.1556,-2.1562,-2.1569,-2.1551,-2.1567,-2.1563,-2.1557,-2.1623,-2.1569,-2.1606,-2.1667,-2.1675,-2.1687,-2.1836,-2.1794,-2.1847,-2.1937,-2.1988,-2.2006,-2.2022,-2.2075,-2.2094,-2.1858,-2.1859,-2.1859,0,-2.1573,-2.1636,-2.1596,-2.1649,-2.1665,-2.1599,-2.1666,-2.1674,-2.1692,-2.1704,-2.1663,-2.1737,-2.1738,-2.1824,-2.186,-2.1872,-2.1889,-2.1848,-2.2006,-2.2022,-2.2036,-2.2086,-2.2106,-2.1865,-2.1864,-2.1864,-2.1863,0,-2.174,-2.1785,-2.1838,-2.1855,-2.1877,-2.1937,-2.1906,-2.1932,-2.1902,-2.1887,-2.1955,-2.1954,-2.1983,-2.2001,-2.1973,-2.2083,-2.206,-2.2014,-2.1941,-2.2065,-2.2112,-2.2131,-2.1875,-2.1872,-2.187,-2.1869,0,0,-2.1956,-2.1948,-2.1969,-2.1975,-2.1977,-2.2011,-2.2067,-2.2095,-2.2119,-2.2132,-2.2179,-2.2231,-2.2187,-2.2201,-2.2173,-2.2217,-2.2334,-2.2164,-2.2163,-2.2196,-2.2455,-2.2491,-2.2514,-2.2305,-2.2309,-2.2312,-2.2455,0,-2.2101,-2.2197,-2.2161,-2.226,-2.23,-2.2237,-2.2286,-2.2293,-2.228,-2.2313,-2.2298,-2.2336,-2.2275,-2.2283,-2.2324,-2.2311,-2.2386,-2.23,-2.2349,-2.2351,-2.235,-2.2538,-2.2577,-2.2712,-2.2472,-2.2476,-2.2478,0,-2.2283,-2.2303,-2.2406,-2.2399,-2.2415,-2.246,-2.2482,-2.2513,-2.2519,-2.2506,-2.2521,-2.2483,-2.2537,-2.2464,-2.2539,-2.2481,-2.2498,-2.2495,-2.2499,-2.2504,-2.2423,-2.2549,-2.2755,-2.2775,-2.2506,-2.2504,-2.2502,0,-2.2431,-2.2483,-2.2551,-2.2558,-2.2552,-2.2585,-2.2585,-2.2586,-2.2604,-2.2623,-2.2635,-2.266,-2.2675,-2.2695,-2.2664,-2.2614,-2.2744,-2.2668,-2.2735,-2.2736,-2.2767,-2.2766,-2.298,-2.2777,-2.2776,-2.2776,-2.2775,0,-2.2597,-2.2663,-2.2617,-2.2659,-2.273,-2.2687,-2.2759,-2.2751,-2.2752,-2.2792,-2.2738,-2.2776,-2.2733,-2.2766,-2.2742,-2.2808,-2.2815,-2.2806,-2.28,-2.2812,-2.2813,-2.2824,-2.2814,-2.2781,-2.278,-2.2779,-2.2778,0,-2.2775,-2.2747,-2.2817,-2.2804,-2.2803,-2.2856,-2.2845,-2.2884,-2.2866,-2.2916,-2.2925,-2.2899,-2.2935,-2.2906,-2.2942,-2.2926,-2.3013,-2.2992,-2.3011,-2.3006,-2.3075,-2.3069,-2.3304,-2.3333,-2.3111,-2.3113,-2.3115,0,-2.2884,-2.2932,-2.2925,-2.2947,-2.2949,-2.2985,-2.3003,-2.2963,-2.2984,-2.2992,-2.303,-2.3061,-2.3085,-2.3147,-2.3131,-2.3158,-2.3138,-2.3218,-2.3142,-2.3152,-2.314,-2.3138,-2.3142,-2.3234,-2.3237,-2.3239,-2.3241,0,-2.308,-2.3063,-2.3091,-2.3113,-2.3136,-2.3152,-2.3164,-2.3185,-2.3144,-2.317,-2.3206,-2.3225,-2.326,-2.3293,-2.3314,-2.3313,-2.3271,-2.3264,-2.3282,-2.3296,-2.3305,-2.3301,-2.3054,-2.326,-2.3258,-2.3256,-2.3255,-2.3255,-2.3227,-2.3267,-2.3267,-2.3299,-2.3304,-2.3316,-2.335,-2.3336,-2.3366,-2.3392,-2.3365,-2.341,-2.3412,-2.3436,-2.344,-2.3474,-2.3441,-2.3466,-2.3472,-2.3479,-2.3489,-2.3298,-2.3478,-2.3477,-2.3476,-2.3476,-2.3476,0,-2.342,-2.3417,-2.3447,-2.3465,-2.349,-2.3445,-2.3456,-2.348,-2.3519,-2.3525,-2.3549,-2.359,-2.3621,-2.3606,-2.3633,-2.3663,-2.3644,-2.3671,-2.3669,-2.3669,-2.3517,-2.35,-2.3686,-2.3686,-2.3686,-2.3686,-2.3686,-2.3686,-2.3524,-2.3589,-2.3572,-2.3638,-2.3634,-2.3676,-2.3686,-2.3696,-2.37,-2.3749,-2.3773,-2.3763,-2.376,-2.3786,-2.3812,-2.3807,-2.3819,-2.3854,-2.3842,-2.3701,-2.368,-2.3661,-2.3644,-2.3857,-2.3857,-2.3991,-2.3993,-2.3994]},{"header":{"parameterUnit":"m.s-1","parameterCategory":1,"la1":30.2991,"la2":30.254,"lo1":-89.0895,"lo2":-89.0444,"dy":0.0017,"dx":0.0017,"nx":28,"ny":28,"refTime":"2023-10-13T03:00:00:Z","depth":0,"parameterNumber":3,"parameterNumberName":"V-component_of_WINDS"},"data":[0,0,0,0,0,0,0,0,0,0,0,0,0,0,0,0,0,0,0,0,0,0,0,0,0,0,0,0,0,0,0,0,0,0,0,0,0,0,0,0,0,0,0,0,0,0,0,0,0,0,0,0,0,0,0,0,0,0,-3.4431,-3.4432,0,-3.4512,-3.4513,-3.4514,-3.4489,-3.4488,-3.4486,-3.4484,-3.4563,-3.4567,-3.4571,0,0,0,0,0,0,0,0,0,0,0,0,0,-3.4251,-3.4254,-3.4431,-3.4432,-3.4433,-3.4512,-3.4513,-3.4514,-3.449,-3.4487,-3.4485,-3.4484,-3.4562,-3.4567,-3.4571,0,0,0,0,0,0,0,0,0,0,0,0,0,-3.433,-3.4255,-3.4431,-3.4431,-3.4431,-3.4512,-3.4513,-3.4514,-3.449,-3.4487,-3.4485,-3.4483,-3.4561,-3.4566,-3.4572,-3.4656,0,0,-3.4588,-3.4591,0,0,0,0,0,0,0,0,-3.4326,-3.4337,-3.443,-3.4431,-3.4432,-3.4488,-3.4478,-3.4562,-3.4491,-3.4468,-3.4484,-3.4481,-3.454,-3.4547,-3.4568,-3.466,-3.4663,-3.4589,-3.4592,-3.4595,-3.4596,0,0,0,0,0,0,0,-3.432,-3.4333,-3.4463,-3.4431,-3.4432,-3.4425,-3.4433,-3.4494,-3.4517,-3.4469,-3.4468,-3.4478,-3.454,-3.4563,-3.4569,-3.4664,-3.4589,-3.4594,-3.4597,-3.4599,-3.4827,-3.483,0,0,0,0,0,0,-3.4315,-3.4329,-3.446,-3.4465,-3.4371,-3.443,-3.4439,-3.4472,-3.4516,-3.4521,-3.448,-3.4476,-3.4554,-3.4563,-3.4572,-3.4673,-3.4595,-3.46,-3.4603,-3.4824,-3.4828,-3.4831,0,0,0,0,0,0,-3.4311,-3.4327,-3.4457,-3.4397,-3.4413,-3.4436,-3.4473,-3.4475,-3.4498,-3.4524,-3.4528,-3.4499,-3.4553,-3.4564,-3.4635,-3.4675,-3.4602,-3.4607,-3.4821,-3.4825,-3.4829,-3.4875,0,0,0,0,0,0,-3.4306,-3.4325,-3.4359,-3.4398,-3.4416,-3.4521,-3.4476,-3.4479,-3.4508,-3.4504,-3.4543,-3.4547,-3.4552,-3.4627,-3.4641,-3.4681,-3.4612,-3.4818,-3.4823,-3.4828,-3.487,-3.488,-3.4889,0,0,0,0,0,-3.4299,-3.4369,-3.4361,-3.4377,-3.4459,-3.4523,-3.4533,-3.4538,-3.4511,-3.4544,-3.4561,-3.4546,-3.4668,-3.4634,-3.465,-3.4692,-3.4815,-3.4821,-3.4827,-3.4866,-3.4878,-3.4888,0,0,0,0,0,0,-3.4333,-3.4374,-3.4366,-3.445,-3.4483,-3.4519,-3.4561,-3.4552,-3.4593,-3.4587,-3.459,-3.4599,-3.4672,-3.4689,-3.465,-3.4775,-3.4737,-3.4747,-3.4761,-3.4773,-3.4783,-3.4777,-3.4616,0,0,0,0,0,-3.4351,-3.4401,-3.4433,-3.4503,-3.4521,-3.4538,-3.4566,-3.4567,-3.4601,-3.4615,-3.4637,-3.4669,-3.4715,-3.4745,-3.4789,-3.4872,-3.4879,-3.4909,-3.4918,-3.4926,-3.4934,-3.4977,-3.499,-3.4851,-3.4851,-3.4851,0,0,-3.4387,-3.4415,-3.4446,-3.4511,-3.4537,-3.4587,-3.455,-3.4605,-3.4641,-3.4623,-3.4691,-3.4708,-3.4744,-3.4821,-3.4856,-3.4838,-3.4974,-3.4934,-3.4939,-3.4943,-3.4985,-3.4998,-3.5009,-3.4855,-3.4854,-3.4854,0,0,-3.4478,-3.4506,-3.4567,-3.4593,-3.4633,-3.4644,-3.4658,-3.4695,-3.4706,-3.4775,-3.4761,-3.4804,-3.4883,-3.4909,-3.4932,-3.5031,-3.5018,-3.5045,-3.5094,-3.5136,-3.5147,-3.5157,-3.5191,-3.5203,-3.5053,-3.5053,-3.5053,0,-3.4518,-3.4595,-3.4599,-3.4655,-3.4683,-3.4669,-3.4729,-3.4754,-3.4806,-3.4825,-3.4804,-3.4902,-3.4925,-3.5007,-3.5031,-3.5051,-3.5066,-3.5041,-3.5146,-3.5155,-3.5165,-3.5197,-3.521,-3.5056,-3.5056,-3.5056,-3.5055,0,-3.464,-3.4693,-3.4737,-3.4788,-3.4821,-3.4879,-3.4891,-3.4923,-3.492,-3.4932,-3.5001,-3.5029,-3.5077,-3.5096,-3.5094,-3.5177,-3.5164,-3.5145,-3.5107,-3.5181,-3.5211,-3.5223,-3.5061,-3.5059,-3.5059,-3.5058,0,0,-3.4757,-3.4808,-3.4824,-3.4846,-3.4888,-3.4928,-3.4985,-3.5032,-3.5059,-3.5095,-3.5141,-3.5207,-3.5188,-3.5215,-3.5216,-3.5253,-3.5327,-3.5228,-3.5229,-3.5244,-3.5418,-3.5432,-3.5447,-3.5319,-3.5321,-3.5323,-3.5415,0,-3.4851,-3.4951,-3.4956,-3.5046,-3.5094,-3.508,-3.5128,-3.5158,-3.5171,-3.5212,-3.5224,-3.5271,-3.5244,-3.5259,-3.5296,-3.531,-3.5362,-3.5304,-3.536,-3.5362,-3.5351,-3.5463,-3.5478,-3.5564,-3.5427,-3.5429,-3.543,0,-3.4975,-3.5014,-3.511,-3.5143,-3.5163,-3.5207,-3.525,-3.529,-3.5322,-3.5328,-3.5358,-3.5352,-3.5407,-3.5368,-3.5443,-3.5403,-3.5426,-3.5436,-3.544,-3.5445,-3.54,-3.547,-3.5591,-3.5604,-3.5449,-3.5448,-3.5446,0,-3.5048,-3.5125,-3.5192,-3.5211,-3.5252,-3.5283,-3.5301,-3.5332,-3.5359,-3.5396,-3.5414,-3.5457,-3.548,-3.5512,-3.5517,-3.5488,-3.5592,-3.5553,-3.5597,-3.5597,-3.562,-3.5618,-3.5745,-3.5636,-3.5635,-3.5635,-3.5635,0,-3.5152,-3.5211,-3.5225,-3.5266,-3.533,-3.5334,-3.5397,-3.5413,-3.544,-3.5482,-3.5472,-3.5512,-3.5517,-3.5557,-3.5561,-3.5622,-3.5632,-3.5638,-3.5638,-3.5638,-3.5637,-3.5653,-3.5647,-3.5639,-3.5638,-3.5637,-3.5637,0,-3.5246,-3.5258,-3.5329,-3.5362,-3.5371,-3.5417,-3.5444,-3.5482,-3.5493,-3.5546,-3.5559,-3.5575,-3.5622,-3.5631,-3.5686,-3.5688,-3.576,-3.5755,-3.5749,-3.5748,-3.5791,-3.5787,-3.5933,-3.5951,-3.583,-3.5831,-3.5832,0,-3.5311,-3.5356,-3.5393,-3.5421,-3.5441,-3.5486,-3.5514,-3.5519,-3.5548,-3.5588,-3.5621,-3.5666,-3.5703,-3.5778,-3.5794,-3.5835,-3.583,-3.5878,-3.5836,-3.5835,-3.5829,-3.5826,-3.583,-3.5886,-3.5888,-3.5889,-3.589,0,-3.5426,-3.5429,-3.5471,-3.5514,-3.5548,-3.5582,-3.5614,-3.5637,-3.5646,-3.5679,-3.5727,-3.5755,-3.5811,-3.5856,-3.5897,-3.5913,-3.5903,-3.5903,-3.5915,-3.5915,-3.591,-3.5912,-3.577,-3.5899,-3.5898,-3.5898,-3.5897,-3.5897,-3.5507,-3.5545,-3.5577,-3.5623,-3.5647,-3.5677,-3.5714,-3.5729,-3.577,-3.5816,-3.5816,-3.5868,-3.5897,-3.5951,-3.597,-3.6009,-3.5994,-3.6012,-3.6016,-3.602,-3.6024,-3.5904,-3.6017,-3.6017,-3.6016,-3.6016,-3.6016,0,-3.562,-3.5639,-3.5681,-3.5727,-3.5762,-3.5749,-3.5784,-3.5814,-3.586,-3.5889,-3.5925,-3.5979,-3.6022,-3.6041,-3.6082,-3.611,-3.6106,-3.6121,-3.6118,-3.6122,-3.6036,-3.6021,-3.6123,-3.6123,-3.6123,-3.6123,-3.6123,-3.6123,-3.5683,-3.5746,-3.5753,-3.5828,-3.5846,-3.5898,-3.5918,-3.5945,-3.5968,-3.6029,-3.6064,-3.6077,-3.6101,-3.6144,-3.6182,-3.6186,-3.6201,-3.6218,-3.622,-3.6139,-3.6128,-3.6118,-3.6104,-3.6222,-3.6222,-3.6302,-3.6303,-3.6304]}]]